West Memphis, AR

5:34 PM CDT on May 28, 2017 (GMT -0500)
West Memphis Municipal

Weather History for KAWM - August, 2014

Change the Weather History Date:

Tuesday, August 19, 2014

  Actual Average Record
Temperature  
Mean Temperature 80 °F -  
Max Temperature 91 °F 90 °F 98 °F (2005)
Min Temperature 71 °F 70 °F 57 °F (1991)
Cooling Degree Days 16    
Growing Degree Days 30 (Base 50)    
Moisture  
Dew Point 74 °F    
Average Humidity 83    
Maximum Humidity 100    
Minimum Humidity 61    
Precipitation  
Precipitation 0.00 in - - ()
Sea Level Pressure  
Sea Level Pressure 29.87 in    
Wind  
Wind Speed 4 mph (SW)    
Max Wind Speed 12 mph    
Max Gust Speed 16 mph    
Visibility 10 miles    
Events Rain , Thunderstorm    
Averages and records for this station are not official NWS values.
T = Trace of Precipitation, MM = Missing Value Source: NWS Daily Summary

Daily Weather History Graph

Daily Weather History Graph

Search for Another Location

Airport or City:

Trip Planner

Search our weather history database for the weather conditions in past years. The results will help you decide how hot, cold, wet, or windy it might be!

Date:

Astronomy

Aug. 19, 2014 Rise Set
Actual Time 6:23 AM CDT 7:44 PM CDT
Civil Twilight 5:57 AM CDT 8:11 PM CDT
Nautical Twilight 5:25 AM CDT 8:42 PM CDT
Astronomical Twilight 4:52 AM CDT 9:16 PM CDT
Moon 1:19 AM CDT (8/19) 3:37 PM CDT (8/19)
Length of Visible Light 14h 14m
Length of Day
13h 20m
Waning Crescent, 29% of the Moon is Illuminated
Aug 19
Waning Crescent
Aug 25
New
Sep 2
First Quarter
Sep 8
Full
Sep 15
Last Quarter

Hourly Weather History & Observations

Time (CDT) Temp. Heat Index Dew Point Humidity Pressure Visibility Wind Dir Wind Speed Gust Speed Precip Events Conditions
12:18 AM 75.9 °F - 75.9 °F 100% 29.85 in 10.0 mi Calm Calm - N/A   Mostly Cloudy
12:45 AM 75.0 °F - 75.0 °F 100% 29.84 in 10.0 mi Calm Calm - N/A   Scattered Clouds
12:53 AM 75.0 °F - 75.0 °F 100% 29.83 in 10.0 mi Calm Calm - N/A   Partly Cloudy
1:53 AM 73.9 °F - 72.0 °F 93% 29.83 in 10.0 mi WSW 4.6 mph - N/A   Clear
2:53 AM 71.1 °F - 70.0 °F 96% 29.82 in 10.0 mi South 3.5 mph - N/A   Clear
4:53 AM 71.1 °F - 70.0 °F 96% 29.85 in 10.0 mi SSW 6.9 mph - N/A   Mostly Cloudy
5:53 AM 71.1 °F - 70.0 °F 96% 29.87 in 10.0 mi SSW 5.8 mph - N/A   Clear
6:53 AM 71.1 °F - 70.0 °F 96% 29.88 in 10.0 mi SSW 4.6 mph - N/A   Clear
7:53 AM 73.0 °F - 71.1 °F 93% 29.89 in 10.0 mi SSW 8.1 mph - N/A   Partly Cloudy
8:53 AM 75.9 °F - 71.1 °F 85% 29.89 in 10.0 mi SW 4.6 mph - N/A   Mostly Cloudy
9:53 AM 81.0 °F 85.2 °F 72.0 °F 74% 29.89 in 10.0 mi SW 6.9 mph - N/A   Partly Cloudy
10:53 AM 82.0 °F 86.7 °F 72.0 °F 71% 29.92 in 10.0 mi West 9.2 mph - N/A   Overcast
11:04 AM 81.0 °F 84.9 °F 71.1 °F 72% 29.93 in 10.0 mi Variable 4.6 mph - N/A Thunderstorm Overcast
11:17 AM 78.1 °F - 71.1 °F 79% 29.94 in 10.0 mi WNW 4.6 mph - N/A Thunderstorm Thunderstorm
11:32 AM 75.0 °F - 71.1 °F 87% 29.94 in 10.0 mi Variable 4.6 mph - 0.00 in Rain , Thunderstorm Light Rain
11:53 AM 75.0 °F - 71.1 °F 87% 29.91 in 10.0 mi SW 5.8 mph - 0.00 in   Mostly Cloudy
12:53 PM 81.0 °F 86.7 °F 75.0 °F 82% 29.89 in 10.0 mi SSW 5.8 mph - 0.00 in   Clear
1:53 PM 88.0 °F 95.6 °F 73.0 °F 61% 29.86 in 10.0 mi SSW 5.8 mph - N/A   Clear
2:53 PM 89.1 °F 99.1 °F 75.0 °F 63% 29.84 in 10.0 mi SSW 11.5 mph 16.1 mph N/A   Clear
3:53 PM 90.0 °F 100.2 °F 75.0 °F 61% 29.81 in 10.0 mi SW 8.1 mph - N/A   Clear
4:53 PM 90.0 °F 100.2 °F 75.0 °F 61% 29.82 in 10.0 mi WSW 8.1 mph - N/A   Clear
5:53 PM 90.0 °F 102.5 °F 77.0 °F 65% 29.82 in 10.0 mi SW 8.1 mph - N/A   Clear
6:53 PM 88.0 °F 101.3 °F 78.1 °F 72% 29.82 in 10.0 mi WSW 5.8 mph - N/A   Clear
7:53 PM 84.9 °F 96.6 °F 78.1 °F 80% 29.84 in 10.0 mi SSW 4.6 mph - N/A   Clear
8:53 PM 84.0 °F 94.8 °F 78.1 °F 82% 29.85 in 10.0 mi SSW 5.8 mph - N/A   Clear
9:53 PM 82.0 °F 91.0 °F 78.1 °F 88% 29.87 in 10.0 mi SSW 5.8 mph - N/A   Clear
10:53 PM 82.9 °F 93.8 °F 79.0 °F 88% 29.87 in 10.0 mi SSW 6.9 mph - N/A   Clear
11:53 PM 82.0 °F 91.6 °F 79.0 °F 90% 29.87 in 10.0 mi SW 5.8 mph - N/A   Clear